Tracking 18844 objects as of 21-Nov-2017
HD Live streaming from Space Station
objects crossing your sky now

COSMOS 2474 (GLONASS)

Track COSMOS 2474 (GLONASS) now!
COSMOS 2474 (GLONASS) is classified as:


NORAD ID: 37829
Int'l Code: 2011-055A
Perigee: 19,119.8 km
Apogee: 19,154.3 km
Inclination: 64.5 °
Period: 675.7 minutes
Semi major axis: 25508 km
RCS: 3.1623 m2 (large)
Launch date: October 2, 2011
Source: Commonwealth of Independent States (former USSR) (CIS)
Launch site: PLESETSK MISSILE AND SPACE COMPLEX (PKMTR)
SV: 742

COSMOS 2474 is a Glonass M satellite.
aabbcc
Your satellite tracking list
Your tracking list is empty




NASA's NSSDC Master Catalog

Two Line Element Set (TLE):
1 37829U 11055A   17324.72932524  .00000062  00000-0  00000+0 0  9999
2 37829  64.5027 178.8559 0006770 242.9839 217.0532  2.13101894 47757
Source of the keplerian elements: AFSPC